Flag for Germany Weather past 2 weeks in Bitterfeld-Wolfen, Saxony-Anhalt, Germany

Now
43 °F

Partly sunny.


Feels Like: 33 °F
Forecast: 35 / 43 °F
Wind: 28 mph from Southwest

Location: Leipzig-Schkeuditz

Current Time: Dec 20, 2014 at 10:06:35 AM

Latest Report: Dec 20, 2014 at 9:20 AM


Visibility: N/A

Pressure: 30.01 "Hg

Humidity: 76%

Dew point: 36 °F

Location of Bitterfeld-WolfenLocation

Historic Weather in Bitterfeld-Wolfen — Graph

°F

Bitterfeld-Wolfen temperature yesterday

Maximum temperature yesterday: 54 °F (at 12:20 AM)
Minimum temperature yesterday: 41 °F (at 10:20 PM)
Average temperature yesterday: 50 °F

Past Weeks' High & Low Weather Summary

 TemperatureHumidityPressure
High54 °F (Dec 18, 9:50 PM)100% (Dec 5, 8:20 AM)30.36 "Hg (Dec 5, 8:20 AM)
Low27 °F (Dec 9, 1:50 AM)66% (Dec 12, 1:20 PM)29.45 "Hg (Dec 12, 7:20 PM)
Average40 °F89%29.94 "Hg
* Reported Dec 5 8:20 AM — Dec 20 8:50 AM, Bitterfeld-Wolfen, Weather by CustomWeather, © 2014

Note: Actual official high and low records may vary slightly from our data, if they occured in-between our weather recording intervals... More about our weather records

Advertising

Bitterfeld-Wolfen weather history for previous 24 hours

 ConditionsComfort  
Time TempWeatherWind HumidityBarometerVisibility
8:50 AM
Dec 20
43 °FPartly sunny.26 mph76%30.01 "HgN/A
8:20 AM43 °FBroken clouds.24 mph76%30.01 "HgN/A
7:50 AM43 °FPassing clouds.23 mph76%30.01 "HgN/A
7:20 AM43 °FPassing clouds.22 mph76%30.01 "HgN/A
6:50 AM43 °FPassing clouds.22 mph76%30.01 "HgN/A
6:20 AM43 °FPassing clouds.23 mph76%30.01 "HgN/A
5:50 AM41 °FPassing clouds.23 mph81%30.01 "HgN/A
5:20 AM43 °FPassing clouds.22 mph76%30.01 "HgN/A
4:50 AM43 °FPassing clouds.21 mph76%30.01 "HgN/A
4:20 AM43 °FClear.22 mph76%30.01 "Hg10 mi
3:50 AM43 °FClear.23 mph76%30.01 "Hg10 mi
3:20 AM43 °FClear.20 mph76%30.01 "Hg10 mi
2:50 AM41 °FClear.22 mph81%30.01 "Hg10 mi
2:20 AM41 °FClear.22 mph81%30.01 "Hg10 mi
1:50 AM41 °FClear.17 mph81%30.01 "Hg10 mi
1:20 AM41 °FClear.16 mph81%29.98 "Hg10 mi
12:50 AM41 °FClear.17 mph81%29.98 "Hg10 mi
12:20 AM41 °FClear.15 mph81%29.98 "Hg10 mi
11:50 PM
Dec 19
41 °FPassing clouds.16 mph81%29.98 "HgN/A
11:20 PM41 °FPassing clouds.16 mph81%29.98 "HgN/A
10:50 PM43 °FPassing clouds.15 mph81%29.95 "HgN/A
10:20 PM41 °FPassing clouds.13 mph87%29.95 "HgN/A
9:50 PM43 °FPassing clouds.13 mph81%29.95 "HgN/A
9:20 PM43 °FPassing clouds.14 mph87%29.92 "HgN/A
8:50 PM45 °FPassing clouds.6 mph81%29.92 "HgN/A
8:20 PM45 °FPassing clouds.9 mph81%29.89 "HgN/A
7:50 PM46 °FPartly cloudy.9 mph76%29.89 "HgN/A
7:20 PM46 °FPartly cloudy.12 mph82%29.86 "HgN/A
6:50 PM48 °FPartly cloudy.15 mph82%29.83 "HgN/A
6:20 PM48 °FLight rain. Partly cloudy.15 mph82%29.80 "HgN/A
5:50 PM46 °FLight rain. Partly cloudy.12 mph93%29.80 "HgN/A
5:20 PM46 °FLight rain. Partly cloudy.13 mph93%29.80 "HgN/A
4:50 PM46 °FSprinkles. Passing clouds.20 mph93%29.80 "Hg5 mi
4:20 PM48 °FRain showers. Passing clouds.24 mph87%29.80 "Hg3 mi
3:50 PM52 °FLight rain. Broken clouds.26 mph82%29.74 "HgN/A
3:20 PM54 °FBroken clouds.26 mph77%29.74 "HgN/A
2:50 PM54 °FPartly sunny.26 mph77%29.74 "HgN/A
2:20 PM52 °FBroken clouds.25 mph82%29.74 "HgN/A
1:50 PM52 °FPartly sunny.24 mph88%29.74 "HgN/A
1:20 PM52 °FLight rain. More clouds than sun.29 mph88%29.77 "HgN/A
12:50 PM52 °FLight rain. Mostly cloudy.24 mph88%29.77 "HgN/A
12:20 PM52 °FDrizzle. Broken clouds.23 mph88%29.77 "HgN/A
11:50 AM52 °FDrizzle. Broken clouds.25 mph88%29.80 "Hg2 mi
11:20 AM54 °FDrizzle. Mostly cloudy.24 mph77%29.80 "HgN/A
10:50 AM54 °FBroken clouds.24 mph77%29.80 "HgN/A
10:20 AM54 °FPartly sunny.23 mph77%29.80 "HgN/A
Weather by CustomWeather, © 2014

See weather overviewHow to use our weather pages